EW3203 Weather Reports


Display with metric or nautical units.
time (UTC)temp
F
wind
direction
speed
MPH
gust
MPH
rain 1hr
in
rain 24hr
in
rain mn
in
humidity
%
barometer
mb
20260506181620 48 1 1.0 5.0 0.11 0.84 0.83 95 1005.1
20260506180052 49 24 1.0 6.0 0.12 0.81 0.80 96 1005.1
20260506174550 49 15 0.0 6.0 0.15 0.78 0.77 96 1005.0
20260506173057 49 6 0.0 7.0 0.16 0.76 0.75 96 1005.0
20260506171545 49 15 0.0 4.0 0.16 0.73 0.72 95 1005.1
20260506170047 49 41 1.0 3.0 0.14 0.69 0.68 95 1005.3
20260506164543 49 10 1.0 3.0 0.12 0.63 0.62 95 1005.5
20260506163040 49 51 2.0 7.0 0.13 0.60 0.59 95 1005.6
20260506161536 50 30 0.0 6.0 0.14 0.56 0.56 95 1005.8
20260506160034 50 61 0.0 5.0 0.16 0.55 0.54 95 1005.9
20260506154533 50 94 1.0 3.0 0.16 0.51 0.50 95 1006.2
20260506153030 51 33 0.0 2.0 0.16 0.47 0.46 95 1006.1
20260506151528 51 27 2.0 7.0 0.16 0.43 0.42 95 1006.2
20260506150027 52 24 0.0 3.0 0.14 0.38 0.37 95 1006.4
20260506144525 53 79 1.0 3.0 0.13 0.34 0.33 95 1006.6
20260506143023 53 32 0.0 5.0 0.13 0.31 0.30 95 1006.8
20260506141522 53 37 0.0 3.0 0.11 0.27 0.26 95 1007.1
20260506140023 53 27 1.0 4.0 0.10 0.24 0.23 95 1007.0
20260506134520 53 47 2.0 7.0 0.10 0.21 0.20 95 1006.8
20260506133018 53 42 2.0 9.0 0.10 0.18 0.17 94 1006.6
20260506131524 54 53 1.0 5.0 0.11 0.16 0.15 94 1006.5
20260506130014 55 41 0.0 4.0 0.10 0.14 0.13 94 1006.8
20260506124513 56 11 0.0 1.0 0.08 0.11 0.10 95 1006.9
20260506123012 56 355 0.0 2.0 0.05 0.08 0.07 94 1006.9
20260506121510 56 208 0.0 0.0 0.02 0.05 0.04 95 1007.3
20260506120017 56 208 0.0 1.0 0.02 0.04 0.03 95 1007.1
20260506114518 56 210 0.0 0.0 0.01 0.03 0.02 95 1006.6
20260506113023 56 210 0.0 0.0 0.01 0.03 0.02 95 1006.5
20260506111510 56 211 0.0 0.0 0.02 0.03 0.02 95 1006.8
20260506110011 55 211 0.0 0.0 0.01 0.02 0.01 94 1006.7
20260506104506 55 210 0.0 0.0 0.01 0.03 0.01 94 1006.6
20260506103009 55 210 0.0 0.0 0.01 0.03 0.01 93 1006.5
20260506101508 55 210 0.0 0.0 0.00 0.02 0.00 93 1006.4
20260506100009 55 210 0.0 0.0 0.00 0.02 0.00 93 1006.3
20260506094505 55 210 0.0 0.0 0.00 0.02 0.00 92 1006.3
20260506093004 55 210 0.0 0.0 0.00 0.02 0.00 92 1006.3
20260506091505 55 210 0.0 0.0 0.00 0.02 0.00 92 1006.3
20260506090000 56 210 0.0 0.0 0.00 0.02 0.00 91 1006.5
20260506084606 56 210 0.0 0.0 0.00 0.02 0.00 92 1006.4
20260506083058 56 210 0.0 1.0 0.00 0.02 0.00 91 1006.7
20260506081557 56 212 0.0 0.0 0.00 0.02 0.00 91 1006.9
20260506080106 57 212 0.0 0.0 0.00 0.02 0.00 91 1007.0
20260506073050 57 212 0.0 0.0 0.00 0.02 0.00 91 1007.3
20260506071550 58 212 0.0 2.0 0.00 0.02 0.00 90 1007.1
20260506061544 59 290 0.0 2.0 0.00 0.02 0.00 90 1007.3
20260506044532 61 292 0.0 1.0 0.00 0.02 0.00 85 1007.7
20260506043030 62 290 0.0 0.0 0.00 0.02 0.00 83 1007.9
20260506041527 62 290 0.0 0.0 0.00 0.02 0.00 82 1007.6
20260506040026 62 290 0.0 0.0 0.00 0.02 0.00 81 1007.5
20260506034529 63 290 0.0 0.0 0.00 0.02 0.02 80 1007.5
20260506033022 63 290 0.0 2.0 0.00 0.02 0.02 79 1007.3
20260506031520 63 297 0.0 2.0 0.00 0.02 0.02 78 1007.0
20260506030034 63 238 0.0 3.0 0.00 0.02 0.02 78 1006.9
20260506024544 63 242 0.0 2.0 0.00 0.02 0.02 79 1006.9
20260506023016 63 248 0.0 2.0 0.00 0.02 0.02 78 1006.8
20260506021516 63 212 0.0 1.0 0.00 0.02 0.02 78 1006.9
20260506020014 63 211 0.0 0.0 0.00 0.02 0.02 79 1006.7
20260506014514 63 231 0.0 1.0 0.00 0.02 0.02 79 1006.5
20260506013022 63 300 0.0 2.0 0.00 0.02 0.02 78 1006.2
20260506011513 63 226 0.0 3.0 0.00 0.02 0.02 78 1006.0
20260506010012 63 253 0.0 2.0 0.00 0.02 0.02 78 1006.0
20260506004512 63 197 0.0 3.0 0.00 0.02 0.02 76 1006.1
20260506003011 63 245 0.0 0.0 0.00 0.02 0.02 74 1005.4
20260506001510 64 245 0.0 0.0 0.00 0.02 0.02 73 1005.3
20260506000010 65 245 0.0 2.0 0.00 0.02 0.02 71 1005.1
20260505234509 66 200 0.0 4.0 0.00 0.02 0.02 69 1005.1
20260505233015 67 168 0.0 3.0 0.00 0.02 0.02 67 1005.0
20260505231509 67 184 1.0 6.0 0.00 0.02 0.02 66 1004.4
20260505230022 66 304 1.0 8.0 0.00 0.02 0.02 67 1004.4
20260505224508 67 304 1.0 5.0 0.00 0.02 0.02 68 1004.1
20260505223006 68 283 3.0 19.0 0.00 0.02 0.02 64 1004.3
20260505221506 68 341 3.0 11.0 0.00 0.02 0.02 63 1004.4
20260505220005 68 217 3.0 10.0 0.00 0.02 0.02 62 1004.6
20260505214506 68 243 3.0 18.0 0.00 0.02 0.02 61 1003.9
20260505213004 69 346 5.0 18.0 0.00 0.02 0.02 59 1003.7
20260505211504 70 13 3.0 9.0 0.00 0.02 0.02 58 1003.9
20260505210002 73 331 3.0 17.0 0.00 0.02 0.02 54 1003.9
20260505204502 74 260 0.0 8.0 0.00 0.02 0.02 60 1002.8
20260505203117 73 306 1.0 7.0 0.01 0.02 0.02 59 1002.7
20260505201559 70 280 0.0 8.0 0.01 0.02 0.02 67 1002.6
20260505194613 70 256 4.0 14.0 0.01 0.02 0.02 63 1004.1
20260505193056 75 338 3.0 12.0 0.00 0.01 0.01 46 1002.5
20260505191559 81 288 2.0 11.0 0.00 0.01 0.01 32 1001.7
20260505190055 82 241 5.0 16.0 0.00 0.01 0.01 31 1001.5
20260505184555 83 273 6.0 22.0 0.00 0.01 0.01 30 1001.4
20260505183059 81 175 6.0 11.0 0.00 0.01 0.01 37 1001.6